Theta_e
313 314 315 314 315 316 317 318 319 320 322 322 322 322 324 326 324 322 328 332 328 330 337 341 343 344 343 344 345 346 347 347 348 348 344 341 341 341 343 346 348 349 351 354 359 361 360 359 358 356 358 358 358 359 360 360 359 359 359 358 358 360 361 360 359 356 356 355 354 354 355 356 354 356 356 355 354 354 356 357 356 354 353 354 353 352 350
312 312 312 313 313 314 315 317 318 319 321 321 322 323 324 325 326 326 330 331 330 334 339 341 343 343 342 344 346 347 349 351 350 349 349 349 349 347 347 350 350 350 351 355 360 361 361 359 357 357 357 358 359 359 360 360 359 358 359 358 359 360 361 360 360 358 356 357 355 353 353 354 354 355 356 357 355 355 355 358 357 354 353 353 355 356 355
312 312 312 312 313 313 314 315 317 318 319 320 322 322 324 325 325 327 329 329 331 337 341 341 340 341 341 341 344 348 350 350 349 350 350 352 353 353 354 356 357 355 353 353 358 362 362 359 358 357 358 358 359 359 360 359 359 358 359 359 360 360 361 362 362 360 358 358 357 354 352 352 352 353 356 358 357 355 356 358 357 356 355 355 355 356 357
312 312 312 312 312 314 314 314 316 317 319 320 321 322 323 324 324 326 327 326 330 337 340 339 340 340 340 342 346 350 350 349 349 348 348 349 350 352 353 356 359 360 357 353 356 360 361 361 358 356 357 359 358 358 358 359 358 359 359 360 360 361 362 362 362 360 358 359 358 354 351 350 349 349 354 358 358 357 358 360 359 358 356 356 355 356 356
311 312 312 312 313 314 314 314 316 317 318 320 321 322 323 324 324 325 325 326 332 338 337 337 339 338 339 343 347 348 348 347 348 347 346 347 347 348 350 351 354 358 359 358 358 359 360 361 359 357 357 358 359 358 358 359 358 359 360 361 361 361 363 363 362 359 357 358 357 354 351 349 347 347 350 355 359 360 359 361 361 358 355 354 355 355 356
311 312 312 312 314 315 315 315 316 318 320 321 321 322 323 324 324 327 328 330 334 336 335 336 337 338 339 341 344 344 343 343 344 344 344 344 344 345 346 348 351 355 358 361 362 361 360 359 359 358 356 357 359 358 357 358 359 358 360 360 362 362 363 364 363 360 357 357 355 353 351 349 348 347 347 349 355 359 361 361 359 355 353 354 353 352 354
311 311 312 313 314 315 316 317 321 322 323 323 322 321 322 324 326 328 330 333 333 333 333 333 336 338 339 340 343 341 338 338 339 339 339 340 341 343 345 346 348 351 355 359 361 361 360 358 357 358 357 357 358 358 358 359 358 358 359 360 362 363 363 365 364 360 358 358 356 353 352 350 349 347 346 346 350 356 360 360 358 353 351 353 354 350 350
311 311 311 312 315 317 317 321 324 323 324 325 326 327 325 325 328 329 330 332 332 331 333 332 334 337 338 341 342 337 334 334 334 335 336 337 338 340 341 343 345 349 354 358 359 361 361 359 356 357 356 356 357 357 357 359 359 359 359 361 363 363 364 365 365 362 359 357 356 354 352 350 349 347 346 346 347 351 356 360 360 356 351 352 355 353 350
312 312 311 312 314 315 318 324 324 321 321 322 323 328 330 328 329 329 329 330 330 329 331 332 333 335 336 339 340 335 331 332 331 332 333 334 335 337 339 342 343 347 353 358 359 360 361 358 354 355 357 355 356 357 357 358 359 360 359 360 363 364 364 365 365 362 360 357 356 354 352 350 349 347 346 346 346 349 354 358 362 361 356 354 355 357 354
312 312 312 312 313 315 319 323 322 320 320 320 320 324 329 329 327 327 327 327 327 328 330 331 333 335 334 335 336 332 328 329 329 330 331 332 334 336 338 343 345 346 352 358 358 359 362 358 352 352 356 355 355 357 358 358 359 360 360 362 363 364 364 365 365 362 359 357 356 353 351 349 348 347 347 347 347 347 350 355 360 362 360 358 357 359 358
311 312 313 313 314 317 320 321 319 319 321 319 320 325 329 327 325 325 324 324 325 326 327 329 333 336 335 335 334 328 325 326 326 327 329 331 335 338 340 343 345 346 351 355 357 357 360 358 352 351 355 357 356 357 357 358 360 361 361 362 364 365 364 366 365 363 360 359 356 352 350 348 347 348 349 348 348 347 347 352 357 360 361 361 361 360 359
312 312 313 314 315 318 319 318 318 319 319 319 323 329 328 322 321 322 322 322 322 323 325 328 332 333 333 332 329 324 323 324 325 326 326 328 333 338 342 345 347 350 352 355 357 359 359 356 351 350 355 357 357 357 358 359 360 360 361 362 365 366 365 366 366 365 363 360 355 351 349 347 348 350 351 351 351 348 347 351 356 358 359 360 361 361 359
312 311 312 313 315 318 317 317 318 318 318 321 326 326 320 317 319 320 319 319 320 320 322 326 328 328 326 325 323 322 322 323 324 325 325 327 331 335 339 345 349 351 352 355 359 360 358 355 351 351 356 358 357 358 358 359 360 360 361 363 365 366 366 366 366 366 364 360 356 353 352 349 350 351 351 352 352 349 350 355 357 358 358 358 360 360 358
312 312 312 312 314 316 315 316 317 317 319 323 321 316 314 315 317 318 318 318 318 318 319 322 323 323 323 322 321 320 320 321 322 322 323 327 332 336 341 346 349 350 353 356 359 360 356 355 354 354 355 357 357 359 359 359 360 361 362 363 366 366 366 365 366 366 365 362 359 359 357 353 353 352 351 353 354 351 353 359 359 359 359 358 359 360 359
313 312 312 314 315 315 314 315 316 316 317 317 314 312 313 315 316 317 317 317 317 317 317 318 319 320 321 320 320 319 319 320 320 321 322 324 328 332 338 343 347 350 353 356 360 361 357 355 355 355 355 357 358 359 359 359 360 361 362 364 365 366 365 365 366 367 366 363 361 361 361 356 353 353 352 355 357 354 354 359 362 361 361 361 360 360 360
314 314 314 314 314 313 314 315 315 315 314 313 311 312 313 313 313 315 316 316 316 316 316 317 317 318 319 319 319 319 318 318 318 320 321 322 325 329 335 341 346 350 354 357 360 362 360 356 355 355 357 359 359 359 359 359 361 362 364 364 366 366 365 364 366 368 367 364 360 361 361 357 355 354 353 355 359 358 357 359 363 363 363 363 362 361 361
313 313 314 313 312 312 313 313 313 313 313 312 312 312 312 312 312 313 315 315 316 315 315 316 317 318 318 318 318 318 317 317 317 318 319 321 323 328 333 340 346 350 354 358 360 361 361 357 354 355 358 359 359 359 360 361 360 363 364 365 366 367 366 365 366 367 367 364 361 362 362 359 356 354 353 355 360 360 359 360 363 364 364 364 362 362 362
312 313 313 312 312 311 312 313 312 312 312 312 312 312 312 312 311 312 313 314 315 315 315 316 317 317 318 318 318 317 316 315 316 317 318 320 323 327 332 338 344 351 356 358 359 361 362 358 355 356 358 359 360 362 363 362 361 362 364 366 367 367 366 366 366 366 366 364 363 364 363 361 358 355 354 358 361 362 361 362 363 364 364 364 363 363 363
311 312 312 312 311 311 312 312 312 311 311 311 312 312 312 312 311 311 312 313 315 316 315 316 317 317 317 318 318 316 315 314 315 316 316 319 323 327 330 335 341 349 355 357 359 362 363 360 358 358 358 360 363 364 364 364 363 363 365 366 367 367 367 366 366 366 366 365 365 365 364 363 361 359 358 361 363 363 363 363 363 363 363 363 363 363 363
311 312 311 310 310 311 312 311 311 311 311 311 311 311 311 311 311 311 312 313 315 315 316 316 316 316 317 318 318 316 315 313 314 315 315 318 323 326 329 334 339 345 353 357 359 361 363 362 361 361 360 362 364 365 366 365 364 366 367 367 367 368 367 366 366 367 366 364 365 365 365 364 365 364 362 362 363 362 362 362 363 363 363 363 363 364 364
310 310 310 310 310 311 311 310 310 311 311 310 310 311 311 311 311 311 312 313 314 315 316 316 316 316 317 318 318 318 316 314 313 314 315 317 321 324 327 333 338 342 349 355 357 360 363 362 363 364 364 364 365 366 366 365 364 367 368 367 367 368 368 367 366 366 366 364 364 366 366 364 364 364 364 363 364 364 362 362 363 363 364 364 364 364 364
309 309 309 309 309 309 309 309 310 310 310 310 310 310 310 311 311 311 312 313 313 314 316 316 316 317 318 318 318 319 317 314 313 314 315 316 320 322 326 333 338 340 346 352 356 359 361 361 363 364 364 364 366 366 365 365 366 367 367 367 368 368 368 367 366 365 366 365 365 365 366 365 364 364 364 363 364 365 364 361 361 362 363 364 364 364 364
308 309 308 308 308 308 309 309 310 310 309 310 309 309 310 310 310 311 312 312 313 314 315 316 317 317 317 318 318 319 319 316 314 314 314 316 319 321 325 331 337 340 344 350 354 357 359 361 362 362 363 364 364 364 365 365 366 367 367 367 368 368 367 367 366 366 365 366 366 366 367 366 364 363 363 363 363 364 364 362 360 360 361 363 364 363 363
308 308 308 308 308 308 308 309 309 309 309 309 309 309 309 310 310 310 311 312 312 313 314 315 317 317 317 318 318 318 319 317 315 314 315 316 318 320 322 326 334 339 342 346 350 353 355 358 359 360 361 362 363 364 365 365 365 366 367 366 366 366 366 366 366 366 366 366 367 366 367 367 364 362 362 364 363 364 364 365 364 363 362 363 363 363 364
307 307 307 308 308 308 308 308 308 309 309 309 309 309 309 309 310 310 311 311 312 313 314 315 316 317 317 317 318 318 318 317 314 314 316 317 318 320 321 324 331 337 341 343 347 350 351 353 355 357 359 360 362 363 364 365 366 365 365 365 364 363 365 366 366 366 367 366 367 368 368 368 367 365 363 363 364 364 364 365 366 366 364 364 364 364 365
307 307 307 307 308 308 308 308 308 308 308 308 308 308 308 309 309 310 311 311 312 313 314 315 316 317 317 317 318 318 318 316 314 314 316 317 317 319 320 323 327 333 338 342 345 348 348 349 350 352 355 356 358 360 363 365 366 365 364 364 363 363 365 366 366 366 366 366 368 368 368 367 369 368 367 365 364 364 363 364 364 365 365 365 364 364 364
306 307 307 308 308 308 308 308 308 308 308 308 308 308 308 308 309 310 311 312 313 314 315 315 316 317 318 317 317 317 316 315 314 314 316 318 318 318 319 321 325 331 336 340 343 345 346 347 348 349 351 353 355 358 360 363 364 365 365 365 363 363 365 366 367 367 368 367 368 368 368 368 369 369 368 366 366 364 364 363 363 363 364 364 364 364 364
306 306 307 307 307 307 307 307 307 307 307 307 307 307 307 308 308 309 311 312 314 315 316 316 316 317 318 318 318 316 315 315 316 315 315 317 319 318 318 320 325 330 334 337 341 343 344 345 346 346 348 350 353 355 357 360 361 362 363 364 364 364 366 367 367 366 367 367 367 367 367 368 368 367 366 365 365 364 363 362 363 363 363 362 363 364 363
306 306 306 306 306 306 307 307 307 307 307 307 307 307 307 307 309 309 310 311 313 314 316 317 317 317 318 319 319 317 315 315 315 315 315 317 319 319 318 319 324 328 331 333 337 341 342 343 344 345 345 347 350 352 354 356 357 359 360 362 362 363 365 365 364 363 364 364 364 364 365 364 363 363 363 363 362 361 360 359 361 362 362 361 361 362 363
306 306 306 306 306 306 306 306 306 306 306 306 306 306 307 307 308 309 309 310 311 314 316 318 318 318 318 319 319 318 316 314 313 314 314 316 318 319 318 319 322 327 329 330 333 338 341 341 342 343 344 345 347 350 352 353 354 356 358 360 360 360 362 362 361 361 362 361 360 360 361 361 361 361 361 361 362 360 358 356 357 357 357 359 359 361 362
306 306 306 306 306 306 306 306 306 306 306 306 306 306 306 307 307 308 308 310 311 313 316 318 319 318 318 318 319 319 318 315 313 313 313 315 318 319 317 317 320 324 328 328 330 334 338 340 341 342 342 344 346 348 349 351 351 352 354 356 357 358 359 360 361 361 361 360 360 360 359 359 359 359 358 359 359 358 356 355 355 355 355 357 358 360 360
306 306 306 306 306 306 306 306 306 305 305 305 306 306 306 306 307 307 308 309 311 312 315 319 320 319 318 319 319 319 319 318 316 314 313 313 316 316 316 317 319 322 326 327 328 330 334 337 339 340 341 342 343 345 347 348 348 349 349 351 352 352 354 357 360 361 361 360 360 360 359 358 358 357 356 355 354 355 355 355 354 354 355 356 357 358 359
306 306 306 306 306 306 306 306 305 305 305 305 305 306 306 306 307 307 308 309 311 313 315 318 320 320 319 319 319 319 319 319 318 316 314 313 314 314 315 316 318 321 324 325 325 326 329 332 336 339 340 340 341 343 343 345 347 346 346 346 346 346 348 350 353 356 358 357 356 355 356 356 356 355 355 355 353 352 353 353 353 353 354 355 357 357 356
306 306 306 306 305 305 305 305 305 305 305 305 305 305 306 306 306 307 308 309 311 314 316 318 319 319 319 318 318 318 319 319 319 317 314 313 314 314 315 316 318 321 323 323 322 323 326 328 331 336 338 338 340 341 341 342 343 344 343 342 342 341 343 344 346 348 350 351 351 351 352 354 354 352 350 351 351 351 351 352 352 352 352 353 353 352 350
306 306 305 305 305 305 305 305 304 304 305 305 305 305 306 306 306 307 308 309 311 314 317 318 319 319 318 318 317 317 318 319 319 317 314 314 316 317 317 317 318 319 320 320 320 322 323 325 328 332 336 337 338 340 340 341 341 340 340 341 340 339 339 339 341 344 346 347 347 348 348 350 350 348 345 344 347 351 354 354 353 351 351 351 349 348 346
306 306 305 305 305 305 305 305 304 304 305 305 305 305 305 305 306 307 307 309 312 315 317 318 319 319 318 317 317 316 316 318 319 319 317 318 321 322 321 319 318 318 318 319 320 322 322 322 324 328 331 334 335 335 336 338 339 339 340 339 338 337 338 339 339 341 342 344 345 346 346 346 347 347 344 341 341 345 350 352 350 348 348 348 347 345 343
305 305 305 305 305 305 305 305 304 304 305 305 305 305 305 305 306 306 307 308 311 314 316 318 319 318 318 317 316 316 316 317 318 319 320 321 323 324 321 318 317 317 317 317 319 321 321 321 322 324 326 329 332 331 330 331 335 338 338 339 338 337 338 339 340 341 342 342 343 345 345 345 346 346 344 340 337 338 343 345 343 342 342 343 343 343 341
305 305 305 305 305 305 305 305 304 304 304 305 305 305 305 305 305 306 306 308 310 312 314 316 318 318 318 318 318 318 319 319 319 320 322 322 322 321 319 316 317 318 318 316 317 318 318 319 321 323 323 326 331 332 330 331 335 337 338 338 338 337 336 337 339 341 342 343 343 342 342 341 341 340 339 337 335 337 339 339 338 337 337 338 338 338 338
305 305 305 305 305 305 305 305 305 304 304 305 305 305 305 305 305 305 306 307 309 311 312 314 316 317 317 318 319 319 320 320 321 321 322 322 321 319 318 318 318 318 318 318 317 317 316 316 318 321 323 324 327 330 330 331 334 337 337 337 338 337 336 336 337 339 341 342 342 342 341 340 338 337 337 336 335 336 337 337 336 334 333 333 334 335 335
305 305 305 305 305 305 305 305 305 304 304 304 305 305 304 304 304 305 306 306 307 309 310 311 313 314 315 316 317 317 317 318 319 319 319 319 319 318 318 317 317 317 318 319 319 318 317 316 317 320 322 323 325 326 327 327 330 333 335 336 336 336 336 335 335 336 338 340 341 341 342 341 340 339 337 336 334 334 335 335 335 334 333 332 332 333 333
304 305 305 305 305 305 305 305 305 305 304 304 304 305 304 304 304 305 305 306 306 307 308 309 310 311 313 314 314 315 315 315 316 316 316 316 317 316 316 316 315 315 317 318 319 320 320 319 318 319 321 323 324 326 327 326 327 329 332 333 334 335 336 335 334 334 336 337 338 339 340 340 339 338 336 335 334 334 333 334 334 334 334 333 333 333 333
304 304 305 305 305 305 305 305 305 305 305 304 304 305 304 304 304 304 305 305 306 306 307 308 308 309 310 311 312 313 314 314 314 314 314 314 314 314 314 314 314 314 314 316 317 319 320 321 320 320 321 322 324 327 328 328 327 326 327 329 330 332 333 334 334 334 335 336 337 337 338 338 337 336 334 333 333 333 333 333 332 332 333 333 333 333 333
303 303 304 305 305 305 305 305 305 305 305 304 304 305 304 304 304 304 304 305 305 305 306 306 307 308 309 309 310 311 311 312 312 313 312 312 312 312 312 312 312 312 313 314 316 317 318 320 321 321 322 322 324 325 327 328 328 327 326 326 326 327 329 332 333 334 335 335 336 336 336 335 335 335 333 332 331 331 332 333 332 333 334 334 334 333 332
303 303 304 305 305 305 305 305 304 305 305 304 304 305 304 304 304 304 304 304 304 305 305 306 306 307 307 308 309 309 310 310 310 311 311 311 310 310 310 311 311 311 311 312 313 314 316 317 318 319 321 322 323 324 325 327 327 328 328 328 328 329 330 331 332 333 333 334 335 336 335 334 333 334 333 333 332 332 331 332 332 332 333 333 333 332 331
303 303 304 305 305 305 305 305 305 304 304 304 304 305 304 304 304 304 304 303 304 304 305 305 306 306 307 307 308 308 308 309 309 309 309 309 309 309 309 309 309 310 310 311 311 312 313 314 315 317 319 320 322 323 325 326 326 327 327 328 329 329 330 330 330 331 331 332 333 333 331 329 328 328 327 327 327 328 328 328 328 329 329 330 331 330 328
302 303 304 305 305 304 304 305 304 304 304 304 304 304 304 304 304 304 304 304 303 303 304 304 305 305 306 306 307 308 308 308 308 308 308 308 308 308 307 307 307 308 309 309 310 310 311 312 313 314 316 317 319 321 322 323 324 324 325 325 326 326 326 326 326 326 327 328 328 328 326 325 324 324 323 322 322 323 323 323 322 321 322 323 325 325 324
302 302 303 304 304 304 304 304 304 304 304 304 304 304 304 304 304 304 304 303 303 303 303 303 304 305 305 305 306 306 306 307 307 307 307 307 307 306 306 306 306 306 307 307 308 309 310 311 312 313 314 315 316 318 319 319 320 320 320 320 321 321 322 321 321 320 321 321 321 321 321 320 319 318 318 318 318 318 318 318 317 316 314 314 316 318 319
302 302 303 304 304 304 304 304 304 304 304 304 304 304 304 304 304 304 304 303 303 303 303 303 303 304 304 305 305 305 305 305 306 305 306 306 306 306 306 305 305 305 305 306 306 306 308 309 310 311 313 314 314 314 315 315 315 315 315 314 314 314 315 315 315 315 314 314 315 316 316 316 315 314 314 315 315 316 315 315 314 312 309 307 307 310 313
302 302 302 303 303 303 303 304 304 303 303 303 303 303 304 304 304 304 304 304 304 303 303 303 303 303 304 304 304 304 305 305 305 305 305 305 305 305 305 304 304 304 304 304 303 304 304 306 307 309 310 310 309 309 309 309 309 309 309 309 309 309 310 310 310 311 311 311 311 311 312 312 312 311 310 310 310 310 311 311 311 309 308 306 304 304 306
302 302 302 302 303 303 303 303 303 303 303 303 302 302 303 304 304 304 304 304 304 304 303 303 303 303 304 303 304 304 304 304 304 304 304 304 304 304 303 302 302 302 302 302 301 302 302 302 303 303 304 304 303 303 303 303 303 303 303 303 303 303 304 304 305 305 306 307 307 307 308 308 309 308 308 307 307 306 307 307 307 307 307 306 304 301 300
302 302 301 302 302 302 302 302 302 302 302 302 302 302 303 303 303 304 304 304 304 304 304 303 303 303 303 304 304 303 303 303 304 304 304 303 303 303 302 302 302 302 301 301 301 301 301 301 300 301 301 301 301 301 301 301 301 300 300 300 300 300 300 300 300 300 301 301 301 302 302 303 303 303 304 304 305 304 304 304 304 303 302 301 300 298 297
302 302 301 301 302 301 301 301 301 302 302 302 301 302 302 303 303 303 303 303 303 304 303 303 303 303 303 303 303 303 303 303 303 303 303 303 302 302 302 302 301 301 301 301 301 300 300 300 300 300 300 300 300 300 301 300 301 300 300 300 300 301 301 301 300 300 300 300 300 300 299 299 299 300 300 300 300 299 299 299 299 298 297 296 296 296 295
Wind_Speed
19 19 20 19 17 16 17 18 19 19 17 17 18 18 21 18 12 12 14 16 17 9 4 6 6 5 4 6 7 8 11 12 12 8 4 3 5 9 10 7 9 11 15 21 27 31 32 32 32 32 33 34 34 33 34 35 35 36 38 39 40 39 38 39 41 41 41 40 42 41 38 38 37 35 33 33 32 31 30 30 30 30 30 29 29 31 31
19 19 19 18 18 18 19 19 20 19 19 19 17 16 20 20 17 17 17 18 17 7 4 6 7 7 3 4 5 9 13 14 13 11 9 10 10 6 4 2 3 8 13 17 21 26 28 29 31 31 31 33 33 33 34 35 35 35 37 39 40 39 40 40 40 40 40 40 41 42 41 40 39 37 34 33 33 33 32 31 30 31 30 29 29 29 30
16 18 19 18 18 19 20 21 21 20 20 20 18 15 15 17 20 22 20 18 14 5 4 4 6 7 4 1 4 7 11 13 13 12 12 13 13 11 10 11 9 5 6 13 17 21 25 27 29 30 30 32 34 33 33 35 35 35 37 39 41 41 40 40 39 40 41 41 41 42 42 42 42 40 37 34 34 35 33 32 32 32 31 31 30 29 29
12 15 18 19 18 19 22 22 22 22 20 18 17 16 15 15 18 22 21 18 12 2 5 4 5 7 5 2 6 7 9 11 11 11 11 11 11 11 11 12 13 11 5 7 12 18 23 25 27 29 30 31 33 33 33 35 35 35 36 38 40 40 39 39 40 41 42 42 42 43 44 44 44 42 40 36 35 35 34 32 33 33 32 32 32 30 28
11 14 18 17 14 15 16 16 19 21 20 19 18 18 20 20 18 16 17 14 6 3 6 4 4 5 5 6 8 8 10 11 11 11 11 10 10 11 12 12 12 12 9 7 8 13 19 23 25 28 29 31 32 33 34 35 35 35 35 36 38 38 37 38 41 43 43 43 44 45 45 45 45 44 43 40 37 36 35 33 34 35 34 34 34 32 29
10 14 16 13 12 12 11 11 14 18 19 21 23 22 21 20 16 13 12 9 4 8 6 5 6 5 7 7 6 10 11 11 12 12 12 12 12 13 13 13 13 13 13 12 12 12 15 20 25 27 29 31 31 31 32 33 34 35 35 35 36 38 37 38 41 44 44 44 45 45 45 45 45 45 45 44 41 37 35 34 35 37 36 34 34 35 33
9 11 11 11 11 10 10 9 4 8 12 13 20 26 23 19 18 15 15 12 5 8 7 8 9 9 9 7 5 11 13 12 13 13 13 14 16 16 15 15 15 16 16 16 16 15 15 17 23 27 28 29 30 30 30 32 34 35 36 35 36 38 38 37 40 43 44 44 45 45 45 45 45 45 45 45 43 40 36 34 36 38 37 34 34 36 36
8 8 9 10 9 7 10 7 9 13 10 10 10 17 19 13 12 11 12 12 7 10 11 11 11 11 12 7 5 13 15 14 15 15 15 17 18 18 18 19 19 19 19 19 18 18 18 18 20 26 29 30 30 30 30 32 34 35 36 35 35 37 38 38 40 43 44 44 45 45 45 44 44 45 44 44 44 42 37 32 33 36 37 35 34 35 36
7 9 9 9 11 11 9 4 8 10 7 9 10 7 9 7 6 3 8 9 8 11 14 14 13 12 13 9 3 14 18 17 17 17 16 17 19 19 20 20 19 19 20 20 20 19 18 19 20 25 29 30 30 31 31 32 33 34 36 37 36 38 40 39 40 42 43 44 44 44 44 44 44 44 44 43 43 43 39 33 30 31 34 35 34 33 35
7 9 8 8 11 9 2 4 6 7 7 9 9 7 5 4 2 1 6 8 7 10 14 16 15 12 11 11 0 16 22 20 20 19 18 19 19 19 21 20 19 20 22 22 22 21 19 19 21 25 29 31 31 32 32 32 34 35 37 38 38 40 41 39 40 42 43 44 44 44 44 44 43 43 43 42 42 43 41 36 30 29 30 31 32 32 33
7 8 8 8 9 4 4 8 9 9 9 9 10 6 3 4 7 6 4 6 6 9 13 16 14 9 9 8 5 19 25 23 22 21 21 22 20 19 19 20 21 22 22 21 21 21 19 19 21 24 28 31 32 33 33 34 35 36 38 39 39 41 41 39 39 41 42 43 44 44 43 43 42 42 42 41 41 42 42 38 33 29 28 28 29 30 30
9 10 9 7 6 0 6 9 11 12 10 7 8 5 1 8 13 9 6 7 7 9 13 14 9 4 4 6 12 20 23 22 21 21 22 23 22 21 21 20 19 18 18 20 21 20 19 19 21 24 28 31 33 35 35 34 36 37 39 40 39 39 38 37 37 38 40 41 43 43 42 42 42 41 40 39 39 40 40 38 34 30 28 27 27 28 28
10 12 10 7 4 2 9 13 12 12 8 4 4 2 2 11 15 10 9 9 8 10 12 10 6 6 7 11 16 20 21 21 22 22 22 23 22 21 21 19 16 16 17 21 22 20 18 17 20 24 28 31 34 35 35 35 37 38 38 38 37 36 36 36 36 37 37 39 41 41 41 41 41 40 40 38 38 39 38 34 32 31 30 28 27 27 27
8 9 9 8 4 4 12 16 11 8 5 4 2 4 10 15 16 12 10 9 9 10 11 9 9 10 11 13 16 18 20 21 23 24 24 24 21 19 18 15 14 16 16 17 19 18 16 16 19 23 27 31 34 35 36 36 36 36 35 35 35 35 37 36 35 35 36 37 38 37 37 39 40 39 39 37 37 38 36 31 30 31 30 29 27 26 26
7 8 8 8 5 6 16 16 8 5 5 2 4 9 14 16 16 14 11 9 10 12 11 11 12 12 12 14 16 19 20 21 23 24 25 26 24 23 22 16 13 15 15 15 18 18 15 15 19 23 27 31 33 34 36 36 33 31 31 33 34 35 36 36 34 33 34 35 36 35 36 38 39 39 39 36 34 36 35 31 28 29 29 29 27 25 25
3 6 4 3 4 9 15 11 5 5 6 5 7 10 13 15 17 16 13 11 12 13 13 14 14 12 13 16 18 20 21 22 24 24 25 26 25 26 24 17 11 13 14 15 17 17 15 15 19 23 26 30 33 33 34 32 29 28 30 32 33 34 34 34 33 32 32 33 34 34 34 37 37 36 37 36 33 33 34 31 28 27 27 28 28 26 25
4 5 4 6 8 12 12 7 4 6 7 6 8 9 11 13 15 16 17 16 15 15 15 16 15 14 14 17 19 20 21 22 24 24 25 25 26 26 24 18 13 12 12 12 12 14 14 14 20 22 23 29 32 31 30 30 28 28 29 30 32 32 32 33 32 31 31 31 32 32 31 33 35 35 35 34 32 32 32 31 29 27 26 27 28 27 25
6 7 6 6 11 16 13 5 3 6 8 8 10 11 11 12 13 15 18 19 19 18 16 16 16 15 15 17 18 19 21 23 24 24 25 25 26 26 25 22 17 11 8 8 9 11 10 11 20 23 22 26 29 27 27 28 28 28 28 29 31 30 30 31 31 30 29 29 29 29 29 30 32 33 33 32 31 31 31 30 29 27 26 26 26 25 25
6 4 2 7 15 17 10 4 5 8 10 11 12 13 13 14 13 14 17 19 21 19 16 15 16 16 16 16 17 19 22 24 24 25 26 27 26 25 25 25 21 14 10 9 7 9 8 8 17 21 21 23 25 25 26 27 27 27 27 29 29 28 28 29 29 29 29 28 27 27 28 28 28 29 30 30 29 30 30 29 28 28 27 26 25 25 24
6 3 4 14 19 12 3 5 10 11 12 13 15 15 15 15 14 14 15 18 20 18 16 15 16 16 15 15 16 18 21 23 24 25 26 27 26 25 25 24 23 18 13 10 6 7 7 7 12 16 18 21 23 24 26 26 27 27 27 28 28 26 26 27 27 27 27 27 26 26 26 25 24 25 27 27 28 30 30 29 27 27 27 27 27 26 24
5 4 8 17 17 6 2 11 16 14 14 17 16 16 16 15 15 14 15 17 18 18 18 17 16 16 15 13 14 16 18 21 23 25 27 27 25 26 26 24 23 19 15 13 7 5 7 6 9 14 17 19 22 24 25 26 27 26 26 27 26 25 24 25 25 25 25 25 25 24 24 25 25 26 27 28 27 27 27 27 27 27 27 27 26 26 24
5 6 11 14 11 7 10 18 19 17 18 18 16 16 17 16 16 15 15 17 18 18 18 17 15 16 16 13 13 14 15 18 22 24 27 27 25 26 25 22 22 21 18 17 10 2 8 7 8 12 15 17 21 23 24 25 26 26 26 25 25 24 23 23 23 24 23 23 24 24 23 26 29 29 29 30 29 27 27 29 30 29 28 27 27 26 26
7 11 14 14 12 11 16 19 19 19 18 17 16 17 17 17 16 15 15 17 18 18 18 16 15 16 16 14 13 13 13 16 18 21 26 27 26 26 25 23 24 23 20 19 14 6 8 8 8 10 11 14 17 20 22 24 25 25 25 24 24 23 22 21 22 24 23 23 24 24 24 26 29 30 29 29 30 29 28 29 30 30 29 28 28 27 27
11 14 16 16 16 17 18 19 19 18 17 16 18 18 17 17 16 15 15 17 18 18 19 17 16 16 16 14 13 12 12 14 16 19 24 26 25 25 25 25 24 24 23 20 16 13 12 13 13 11 10 12 13 14 18 21 22 23 24 23 22 21 21 21 21 22 22 23 24 24 24 24 27 28 29 29 30 30 30 29 29 29 29 29 28 27 26
14 16 17 17 18 18 18 18 18 16 16 17 18 17 17 17 17 16 16 17 17 18 19 18 17 16 15 14 12 11 11 13 14 17 23 26 25 24 25 25 24 24 25 23 17 15 15 15 15 13 12 13 12 11 13 17 20 22 22 20 19 18 19 20 22 22 22 23 23 24 24 23 23 25 28 29 30 32 32 30 29 28 28 29 29 28 27
15 17 18 17 17 16 17 18 18 18 18 18 17 16 17 18 17 16 16 16 17 17 18 19 18 16 14 13 12 11 10 9 10 14 21 25 25 24 26 27 25 23 24 23 20 19 17 16 17 16 13 11 9 8 11 14 17 20 20 19 20 21 21 21 23 24 23 22 22 23 23 23 21 21 22 23 25 30 32 32 31 30 29 29 29 29 30
15 17 18 16 15 17 19 20 20 19 19 18 17 17 17 17 16 16 15 15 16 16 17 18 17 15 13 12 13 12 10 6 6 11 18 22 23 24 26 27 26 23 21 17 17 21 20 17 16 18 17 14 10 8 10 13 15 18 20 19 19 22 22 20 21 21 20 21 22 22 22 22 20 18 18 19 21 25 29 31 33 33 32 32 30 29 30
16 17 18 15 15 18 21 20 19 19 18 18 17 16 16 16 15 15 14 14 14 14 15 15 15 14 12 11 11 12 11 8 6 7 13 19 22 23 26 27 25 23 21 15 13 17 20 19 18 17 16 15 13 10 9 11 14 17 19 19 17 18 18 18 18 17 16 18 20 20 19 19 18 16 15 17 21 21 19 20 27 32 34 35 33 30 30
17 17 17 17 17 19 20 20 19 19 19 18 17 15 15 17 16 15 14 15 14 13 14 13 13 12 12 10 9 10 11 9 5 4 8 16 21 22 24 27 25 22 21 18 15 16 18 20 19 17 15 15 15 13 10 9 10 12 14 16 17 18 18 17 16 15 14 16 19 21 19 17 16 15 16 18 23 22 17 17 24 30 32 32 33 32 32
18 17 17 18 19 19 19 20 21 20 20 19 17 16 16 17 18 17 16 16 15 14 13 12 12 12 11 10 9 9 10 8 4 2 5 12 19 22 24 25 25 22 21 20 19 18 19 21 22 20 17 16 15 14 12 10 10 11 12 13 14 15 17 18 18 17 15 15 17 19 18 16 16 18 21 23 26 25 21 20 25 28 28 28 30 32 32
19 17 17 19 20 20 20 21 21 21 21 20 19 18 18 19 19 19 19 18 16 15 15 13 11 11 11 10 9 8 8 9 9 8 6 5 11 19 23 24 23 22 20 19 18 20 22 22 23 23 20 16 13 13 14 12 11 12 14 14 14 14 14 16 18 18 17 16 16 17 17 15 15 17 19 20 23 25 23 22 23 24 23 25 26 28 29
19 18 18 20 21 21 20 20 21 22 22 21 20 20 20 20 20 20 19 19 18 17 16 13 10 9 9 9 8 7 7 8 10 11 7 2 5 13 19 21 21 20 18 17 17 20 23 23 22 23 22 18 14 14 16 17 15 15 15 15 15 13 12 13 15 17 18 19 19 19 19 17 15 14 14 13 16 18 19 18 18 19 20 22 23 24 25
18 19 20 21 22 22 22 21 22 22 21 20 20 20 20 20 20 18 18 18 18 16 14 13 9 7 7 8 7 7 7 7 7 8 8 7 7 9 11 16 18 17 16 15 14 17 20 21 21 21 20 19 16 16 19 20 18 17 16 15 14 14 13 12 12 14 17 18 17 17 18 17 14 12 11 11 12 13 15 18 20 22 23 24 24 25 25
16 18 19 19 20 21 21 21 21 22 21 20 21 20 20 21 22 20 18 18 16 14 13 12 10 7 6 7 6 6 7 7 6 7 7 8 10 10 10 12 14 14 13 13 12 15 18 19 19 20 20 19 17 17 19 19 17 16 16 15 13 14 15 15 14 11 11 12 12 13 14 14 12 11 12 14 17 18 20 23 25 25 25 25 26 27 27
15 16 17 17 18 19 18 18 20 22 21 21 22 21 21 23 24 22 19 17 16 16 17 13 8 5 5 6 5 5 6 7 7 6 5 4 6 8 11 13 12 12 13 12 11 12 14 17 18 17 17 18 18 19 20 19 16 15 16 16 15 14 14 15 15 13 11 10 9 8 6 8 10 11 11 14 19 23 24 25 25 24 24 25 26 27 28
14 16 17 17 18 18 17 17 20 21 20 21 22 22 22 24 24 22 19 18 16 16 16 12 7 4 4 4 3 3 4 5 4 4 2 3 5 5 7 9 11 12 13 13 11 10 11 12 14 14 13 16 18 18 18 18 18 17 16 17 17 16 16 15 14 14 13 12 12 10 6 3 6 8 8 9 14 20 23 24 24 24 24 25 25 26 25
14 15 17 17 18 18 17 17 20 21 20 20 21 21 21 22 23 22 20 19 17 16 16 14 8 3 1 1 2 1 1 2 2 2 1 1 2 3 5 8 10 11 12 13 12 10 9 9 10 11 10 11 13 14 12 13 15 16 16 17 17 17 17 17 16 14 13 12 12 12 9 6 3 5 9 11 12 16 20 22 22 24 24 24 24 24 23
14 15 15 16 17 18 17 17 18 19 19 20 20 21 20 21 22 22 22 21 19 18 18 17 13 8 6 6 6 6 5 4 3 2 2 1 0 1 4 8 10 10 9 10 10 9 8 8 7 8 7 6 8 12 10 7 9 12 14 15 15 15 17 18 16 14 13 12 11 10 8 7 7 8 12 14 14 15 18 20 22 23 23 22 22 21 20
14 15 15 16 16 17 17 17 17 18 19 19 20 22 23 23 22 21 22 22 21 20 19 19 18 16 14 12 11 10 9 9 9 8 7 5 4 5 7 8 9 9 8 7 7 8 7 7 7 6 4 2 3 6 7 7 9 11 12 13 14 14 14 15 13 12 11 10 8 8 6 5 7 9 11 12 13 14 16 18 19 20 19 19 18 17 16
15 15 15 15 16 17 17 17 18 18 19 20 20 22 24 24 22 21 22 23 23 21 21 20 19 18 17 15 14 13 12 11 10 10 9 8 6 6 9 10 10 10 8 7 6 6 6 6 6 6 4 1 1 1 2 4 7 8 8 10 12 13 13 13 13 11 10 8 7 6 5 3 2 6 9 11 12 14 15 17 18 18 18 19 18 17 15
15 15 14 14 15 16 17 17 17 17 19 20 20 20 21 22 21 20 20 22 22 22 22 21 20 19 17 16 14 14 14 13 12 10 10 10 10 9 10 12 13 13 11 9 8 6 4 3 3 3 3 3 3 3 3 2 3 5 5 7 10 12 12 10 8 6 6 6 5 4 4 2 2 5 8 10 12 14 15 16 17 18 19 20 19 17 16
15 15 14 14 14 14 16 17 17 17 18 19 18 18 19 20 19 19 20 20 22 24 24 22 20 19 18 16 14 14 14 14 13 12 13 14 14 13 12 13 14 14 12 10 10 9 8 5 3 1 1 2 2 3 3 3 1 1 1 3 5 6 7 6 4 2 3 5 5 3 1 1 3 5 7 8 10 12 15 16 17 19 20 20 18 17 17
14 14 13 13 12 13 14 16 16 17 18 18 18 18 19 20 20 21 21 21 22 24 25 24 22 20 19 17 16 16 17 16 15 14 14 15 16 16 15 14 14 14 13 12 11 11 10 9 8 6 4 2 2 3 4 4 4 3 3 2 1 1 2 2 1 1 3 5 5 4 2 3 5 7 9 10 11 12 14 15 16 17 18 17 17 17 18
14 14 13 11 11 12 13 14 15 17 17 17 17 16 17 19 20 20 20 21 22 23 24 24 23 21 19 18 17 18 18 18 18 17 17 17 19 19 18 15 14 14 14 14 14 14 14 13 11 10 8 5 3 2 3 4 5 5 5 4 4 4 3 3 3 3 4 4 5 4 3 4 6 9 12 13 14 14 15 16 17 17 17 17 17 18 18
13 14 13 11 10 10 11 12 14 15 16 16 16 15 16 18 18 18 18 19 21 22 22 23 23 22 20 19 18 17 17 18 18 18 18 18 20 20 20 18 16 14 13 14 16 17 16 15 14 12 10 7 5 3 3 3 3 4 4 4 4 4 3 3 2 3 4 5 5 5 4 5 8 10 12 14 15 16 16 17 17 18 18 19 20 21 21
13 13 13 12 10 9 10 11 12 13 15 16 15 15 15 16 16 16 17 18 19 20 22 22 23 23 22 21 19 18 18 18 19 20 19 18 18 18 19 20 19 17 15 16 17 17 15 14 14 12 11 9 6 6 6 7 6 4 3 3 3 3 3 3 3 2 2 4 5 6 7 9 10 11 12 12 12 12 12 12 13 14 16 18 21 22 22
12 12 13 13 12 11 11 11 11 12 14 16 16 16 14 14 14 14 15 16 17 20 22 22 23 23 23 22 22 21 20 20 21 21 20 18 18 19 20 21 22 21 19 19 19 17 14 12 12 11 9 8 9 10 10 10 11 10 10 9 8 7 7 7 8 8 8 9 9 9 10 12 13 14 13 13 13 12 11 11 12 15 17 19 22 24 24
11 11 12 13 13 13 13 12 12 13 14 15 16 15 14 13 12 12 12 14 16 18 20 21 22 22 22 22 22 22 20 20 21 22 21 20 20 21 20 21 22 22 21 22 22 19 16 14 13 12 11 12 14 15 15 15 15 16 16 16 16 15 14 14 14 15 15 15 15 15 15 16 17 17 17 17 17 17 18 19 21 22 23 23 23 23 24
9 10 10 11 12 14 14 13 13 13 13 14 14 14 13 13 13 12 11 12 14 14 15 17 19 19 19 20 21 20 19 19 20 21 20 20 20 21 20 20 21 22 22 23 24 23 21 20 19 18 18 20 21 22 22 22 22 22 22 22 22 21 20 19 19 18 17 17 17 17 17 19 20 21 22 22 22 22 23 24 25 25 24 23 22 21 20
8 9 10 10 11 12 13 13 13 13 13 13 13 13 12 12 13 12 11 11 12 12 13 15 16 16 16 18 19 19 18 18 19 19 18 18 20 22 23 25 26 27 28 28 29 28 27 28 28 27 27 29 29 28 27 28 30 30 30 29 28 27 26 25 24 23 22 21 21 20 19 19 20 20 21 22 22 22 23 23 23 22 21 19 16 15 14
7 8 9 9 9 10 11 12 12 12 12 12 12 12 11 11 11 12 12 12 11 11 11 14 16 16 15 15 16 17 17 17 18 18 18 18 20 22 24 26 29 32 34 36 37 36 35 35 35 35 35 36 36 35 34 34 34 34 33 32 31 31 30 28 27 26 26 26 25 24 23 22 21 20 20 19 18 18 18 18 18 18 17 15 14 13 12
6 6 7 8 8 9 10 11 11 11 11 12 12 12 12 11 10 11 11 11 11 10 11 13 16 17 15 14 14 16 17 17 17 17 17 19 21 22 22 24 27 30 32 34 35 36 36 35 35 35 35 36 35 35 34 34 33 32 32 31 30 29 29 28 27 26 26 25 24 24 23 22 21 21 21 20 20 19 19 18 18 19 18 17 16 14 13
Wind_Direction
254 260 266 272 278 279 277 276 279 280 279 283 285 264 238 234 242 241 236 231 229 246 353 40 38 22 58 80 77 81 69 50 34 19 18 75 130 156 166 191 213 213 197 183 183 188 191 194 196 197 197 196 196 197 195 194 193 190 189 189 189 190 192 195 199 202 202 203 205 205 205 205 204 203 205 206 205 206 208 209 209 209 208 212 220 223 224
258 257 259 267 274 272 269 268 270 274 275 273 278 271 244 232 242 248 244 237 227 208 36 2 346 353 23 83 73 63 58 47 37 32 34 36 36 49 61 20 251 213 203 197 191 190 193 195 196 197 196 195 196 196 196 195 194 192 189 189 189 190 193 196 198 200 201 201 204 206 206 206 206 203 203 204 204 204 207 209 209 210 209 210 215 220 221
259 256 259 264 269 269 265 262 262 264 267 262 256 255 246 238 243 244 240 238 227 175 57 338 315 311 286 116 62 47 48 42 38 37 30 25 22 16 10 355 336 311 220 205 199 197 199 199 200 199 198 196 196 196 196 195 194 192 190 189 189 190 192 194 195 198 200 200 202 205 206 207 207 204 202 203 204 204 205 208 210 210 209 209 212 217 220
258 255 254 252 259 266 261 256 254 254 257 253 241 236 240 244 245 239 233 232 224 165 39 340 301 290 279 19 32 21 26 28 30 32 23 16 12 2 353 341 332 332 309 226 210 207 207 206 205 203 200 198 197 196 196 195 194 192 191 190 190 191 191 191 193 199 201 199 203 206 207 209 211 209 204 201 203 204 203 206 210 210 210 210 210 212 216
261 259 254 253 259 263 256 248 245 246 247 246 243 239 237 242 247 240 230 227 229 25 17 336 310 313 322 4 27 27 19 14 17 20 12 4 359 349 339 331 327 326 320 295 255 228 219 215 212 208 204 201 199 198 197 195 193 192 192 191 191 191 190 189 194 202 203 201 204 208 209 211 213 212 208 203 203 204 202 204 209 213 215 214 213 213 213
264 263 261 263 259 256 259 246 237 244 248 242 240 239 238 242 250 256 253 252 334 17 3 330 331 329 318 329 22 45 31 17 12 7 360 354 347 340 333 328 324 319 314 308 295 271 244 227 219 213 209 205 202 200 198 195 193 192 192 191 191 190 190 190 194 201 204 204 206 209 210 210 212 213 213 210 207 205 204 205 211 217 219 218 218 219 216
261 265 264 259 248 250 261 260 282 307 288 268 253 244 241 244 244 250 260 261 305 1 342 323 325 319 310 312 44 55 36 24 14 360 352 349 341 335 331 324 319 315 310 305 295 283 268 245 227 216 211 208 204 202 199 195 194 193 192 191 190 190 190 190 194 201 204 205 206 209 210 210 211 214 215 214 212 209 206 207 214 221 222 220 221 223 221
250 256 251 247 256 274 269 275 16 9 342 346 316 255 236 232 233 246 264 262 293 337 328 320 317 309 302 292 82 56 33 24 16 358 349 345 336 331 328 321 317 313 307 302 297 287 277 261 235 217 212 208 204 201 199 196 194 193 192 192 191 190 190 190 195 201 205 205 207 209 210 211 212 214 216 216 216 214 210 207 212 220 224 223 222 225 226
244 253 249 250 264 272 267 282 31 23 358 7 357 281 234 212 206 259 288 278 301 320 315 316 315 311 297 265 110 44 23 16 9 355 346 342 333 327 322 313 309 311 308 303 298 290 279 264 239 218 211 207 202 200 198 196 194 192 192 192 191 191 191 191 195 202 205 207 208 210 211 211 212 214 216 217 217 216 213 207 208 215 222 223 223 224 227
240 254 254 256 256 250 267 16 28 30 7 344 329 303 270 241 205 306 290 279 296 312 314 314 310 306 281 245 187 22 7 1 -0 351 345 341 332 327 321 310 306 310 310 307 300 291 280 262 240 220 209 203 200 197 196 195 193 191 192 192 191 193 193 192 195 203 207 209 210 211 212 213 213 214 215 217 217 217 215 211 208 211 217 221 222 222 226
238 248 248 250 250 233 53 13 354 6 4 333 308 283 262 332 355 1 327 313 318 318 318 312 304 294 259 238 1 6 352 349 353 348 344 341 335 329 320 312 310 308 306 306 300 289 277 258 238 220 208 201 197 196 194 193 192 192 193 193 192 195 195 192 195 203 207 209 211 213 213 213 213 213 214 215 216 217 218 215 211 210 214 217 219 220 223
233 242 246 252 254 310 31 356 344 353 352 315 282 242 186 346 346 -0 10 353 344 330 318 309 304 313 294 302 342 347 340 341 345 345 344 342 338 334 325 315 309 307 310 313 303 286 271 255 233 216 206 198 196 195 193 192 192 193 195 194 192 194 193 191 194 200 204 209 213 215 215 214 213 212 213 214 215 218 218 217 213 212 214 216 218 220 221
230 234 241 255 247 55 7 340 337 347 335 274 247 230 299 319 327 354 9 353 348 339 326 319 322 332 324 317 324 333 337 339 340 342 345 343 341 340 331 316 303 305 314 315 301 282 266 250 228 212 204 198 195 195 192 192 195 195 195 193 190 191 191 191 194 199 202 210 214 215 215 214 212 212 214 214 216 218 217 214 212 212 213 216 218 220 222
236 235 245 261 245 54 3 338 337 348 316 246 241 310 303 307 320 339 344 338 344 340 329 329 327 317 313 314 323 333 339 339 339 341 344 345 346 344 333 313 297 299 305 308 302 285 263 241 222 210 203 198 196 194 193 195 197 195 192 190 188 190 192 191 193 197 200 207 211 211 212 213 211 211 214 213 214 218 216 211 211 212 212 214 217 219 221
245 243 249 255 248 19 2 343 343 9 354 356 355 325 316 322 329 329 325 325 334 332 327 327 324 316 315 322 331 337 339 339 340 339 341 345 347 348 342 330 308 297 295 305 307 289 258 232 217 208 202 197 195 194 195 197 196 191 190 189 187 190 193 191 191 194 197 204 209 207 209 213 212 211 212 210 210 215 215 208 206 210 210 210 214 217 218
269 243 247 281 310 354 1 358 12 24 14 10 349 326 322 328 329 329 328 323 322 324 322 321 320 320 323 329 335 338 338 341 339 338 342 346 348 350 348 342 323 301 298 311 308 282 254 230 214 205 199 195 194 196 197 196 192 189 189 189 187 190 192 190 189 189 191 200 208 206 207 212 212 211 212 209 206 210 212 206 201 204 208 209 212 215 217
312 277 305 347 338 339 349 1 16 6 354 341 330 321 316 317 321 326 324 317 318 321 317 315 316 320 326 331 335 336 336 338 338 337 342 347 349 351 352 353 345 319 306 314 300 271 253 228 207 200 197 195 195 197 196 192 189 188 188 188 187 188 189 187 186 187 189 197 205 204 203 209 210 209 210 208 203 205 208 205 201 202 205 209 212 214 216
311 291 298 327 329 330 331 324 322 332 329 326 326 323 314 307 310 317 315 310 311 313 311 312 312 315 323 327 330 335 336 337 338 339 342 347 351 353 357 2 359 340 325 327 294 266 259 223 201 197 197 195 194 194 191 187 187 188 187 187 187 187 186 184 184 185 187 192 197 197 198 204 208 209 209 204 200 202 204 203 202 202 203 206 210 213 215
321 297 326 339 326 324 330 349 339 323 317 319 320 318 314 306 303 308 309 306 307 307 306 305 304 308 317 321 325 334 339 338 338 338 340 345 350 354 359 2 2 360 2 356 306 262 253 213 195 196 198 194 190 187 186 185 185 185 185 184 184 183 183 182 181 183 185 187 190 192 194 199 202 205 205 201 197 199 201 201 201 202 203 205 208 211 213
314 295 346 339 327 319 344 11 347 331 323 321 316 312 311 305 300 303 306 306 308 307 304 301 300 304 310 314 320 330 338 340 338 337 339 343 349 356 1 2 5 11 18 13 330 251 223 189 184 191 195 193 190 186 184 183 183 181 181 181 181 181 181 179 179 181 185 189 190 190 191 192 193 196 199 199 200 202 203 202 201 202 204 205 207 210 211
312 316 342 341 335 321 318 337 336 332 326 321 315 312 312 308 305 306 307 307 308 305 302 298 295 297 302 310 317 323 334 341 338 336 340 343 348 356 360 1 5 14 25 23 359 246 206 191 188 187 186 190 191 187 184 182 180 178 179 181 181 179 178 178 180 181 184 188 189 187 186 189 192 194 196 198 200 203 205 205 203 203 205 207 208 209 209
325 335 341 342 336 309 310 323 326 325 324 321 317 314 313 311 310 310 308 308 306 303 302 298 291 291 295 304 313 316 329 340 337 336 342 346 350 356 1 3 4 12 30 35 27 196 188 186 187 181 178 183 186 183 180 180 179 179 180 181 179 177 176 177 179 180 181 185 187 185 185 190 195 197 197 198 198 199 204 209 209 207 207 208 210 210 209
323 329 333 333 322 307 310 316 318 319 322 321 318 315 311 309 312 311 308 306 303 301 302 297 290 288 289 298 309 311 320 334 333 331 339 346 350 355 1 4 3 11 30 42 46 86 144 152 153 155 162 172 178 179 178 178 180 181 180 177 175 176 176 176 178 181 181 182 186 185 186 194 200 200 199 201 200 201 207 212 213 212 211 212 214 214 213
322 326 330 326 317 310 310 313 314 315 319 319 316 313 311 309 309 307 305 302 298 297 298 295 289 286 285 292 303 304 313 331 333 329 336 345 349 352 359 4 5 11 23 34 48 76 101 117 125 126 130 141 154 169 174 177 180 181 179 178 175 174 174 175 179 183 182 183 187 186 186 197 205 204 202 204 203 204 208 211 212 214 215 214 215 216 216
328 328 328 321 313 310 313 317 316 315 319 322 318 314 313 312 308 306 304 299 294 292 291 289 288 285 281 286 293 296 309 329 333 326 332 342 348 353 1 7 9 14 21 25 42 71 84 92 100 107 118 128 134 144 155 167 178 179 177 176 175 172 172 174 178 181 181 183 187 186 186 196 206 207 206 207 208 209 211 211 213 216 217 216 216 215 215
337 335 330 322 317 321 328 329 326 323 325 326 322 317 316 314 310 307 304 299 294 289 285 284 286 283 275 276 283 288 302 326 335 326 329 339 348 357 5 8 8 15 23 29 45 67 77 77 78 80 88 102 113 124 133 145 158 165 167 170 171 171 171 174 181 186 186 186 188 188 189 195 202 205 204 205 210 216 217 216 216 216 218 219 219 216 216
346 344 341 334 332 337 339 335 329 327 327 327 325 322 320 317 314 312 309 303 297 290 282 280 282 279 271 270 277 283 293 318 341 330 328 336 348 360 7 8 10 19 27 34 51 64 66 67 70 71 73 80 90 110 126 130 135 144 152 159 168 173 172 173 180 183 184 186 188 190 193 196 198 201 198 196 206 219 223 221 220 220 220 220 220 218 217
348 348 349 346 340 338 337 334 332 330 329 330 329 325 323 323 323 322 319 313 305 296 287 283 280 274 267 266 271 276 281 296 329 335 328 332 343 356 5 8 15 23 25 31 60 69 62 62 69 67 64 68 76 90 116 133 136 137 137 138 147 161 166 169 173 174 175 180 182 185 192 196 195 197 196 195 205 216 219 217 218 222 223 223 222 221 220
351 350 351 349 344 340 338 337 337 335 334 335 335 333 333 333 334 334 329 322 314 305 296 289 282 274 265 260 265 273 275 284 314 347 327 327 335 346 355 4 15 23 22 30 61 77 68 63 65 62 54 55 63 74 95 125 136 135 134 135 142 151 159 164 167 169 176 184 185 186 190 190 189 195 199 199 205 210 206 200 209 218 224 225 224 223 222
351 353 352 349 347 347 345 343 340 338 339 340 340 340 342 343 342 339 333 326 320 314 307 297 286 276 265 256 261 272 269 264 277 319 315 324 334 341 346 356 9 17 18 27 50 70 69 63 61 60 54 51 57 70 82 96 109 117 125 132 140 150 162 169 170 170 174 181 186 189 188 182 184 198 205 204 205 208 208 208 214 220 223 222 221 222 222
351 355 356 352 350 350 348 345 342 342 343 343 343 344 346 347 346 340 335 333 330 322 316 307 289 274 267 259 255 264 262 256 271 293 299 318 339 343 344 349 359 9 12 16 35 58 66 64 62 61 59 54 56 69 77 80 86 95 105 114 124 137 153 167 173 174 169 166 169 176 176 172 179 196 205 206 207 213 217 220 221 222 221 217 215 215 215
350 355 357 354 353 354 352 348 345 345 345 346 348 347 346 347 345 338 333 336 335 328 323 319 301 277 271 263 251 256 265 265 273 286 290 296 339 342 342 342 349 4 13 10 22 46 59 62 63 63 60 56 59 71 79 81 83 84 85 91 100 107 119 141 158 165 163 161 162 167 167 167 178 195 205 206 211 217 220 216 210 208 207 204 201 199 199
356 358 358 356 356 357 354 349 346 345 345 347 349 347 344 345 344 338 333 335 336 332 329 328 321 299 281 269 254 253 265 270 271 277 288 306 316 323 335 340 345 357 7 6 16 37 48 54 61 63 60 56 60 71 77 78 80 81 77 74 77 81 85 96 120 143 156 158 158 161 165 167 174 189 197 194 192 192 190 187 186 187 188 188 186 182 179
2 1 357 357 360 359 354 349 345 344 345 347 349 348 347 348 347 343 339 340 344 349 345 333 320 309 295 282 269 257 255 256 258 264 278 297 299 291 299 325 342 354 358 360 14 30 35 41 50 58 61 61 61 68 74 73 72 73 72 71 72 71 68 69 76 96 125 139 141 151 163 168 165 164 170 176 177 177 179 183 184 183 181 177 173 169 168
3 1 358 -0 4 2 356 351 348 346 345 347 349 349 349 351 351 349 347 348 354 -0 356 341 319 300 294 284 274 262 250 245 250 260 279 319 324 302 295 304 321 340 352 359 12 21 26 33 39 46 58 64 62 62 68 72 71 68 64 63 65 67 65 63 61 62 70 83 95 113 149 174 172 164 166 177 181 183 186 188 186 183 180 176 171 169 171
1 2 3 4 6 4 360 355 352 350 347 348 351 351 351 352 354 354 354 356 1 6 4 356 339 312 305 304 297 275 252 238 235 246 283 342 356 351 332 316 312 320 334 347 357 0 6 22 32 35 46 59 62 60 59 62 66 66 58 51 52 56 60 62 57 51 51 57 64 69 79 138 176 177 188 195 187 183 183 183 179 176 175 175 174 174 176
3 6 7 7 7 6 3 358 356 354 352 350 353 355 353 354 358 -0 360 2 9 16 17 15 12 358 321 5 29 10 277 245 231 221 236 310 314 324 343 346 341 333 329 333 342 345 342 353 17 26 30 47 66 71 61 50 55 61 57 51 50 49 47 50 52 49 44 42 47 57 64 68 104 179 200 202 184 171 168 167 164 163 165 169 174 177 177
6 9 9 9 8 9 8 2 358 358 356 354 356 359 359 359 2 4 6 9 16 23 24 26 37 62 90 97 91 85 77 75 92 127 137 120 51 333 356 9 14 11 355 339 339 344 336 333 357 26 34 41 66 79 80 72 68 66 60 56 55 47 38 38 45 49 46 41 40 50 70 94 121 158 181 183 171 161 159 157 155 156 160 166 172 174 173
8 10 10 10 10 12 12 7 2 2 2 359 359 3 6 7 7 7 9 15 24 32 34 34 41 52 60 66 73 72 65 64 69 69 67 64 52 39 41 38 28 20 17 2 340 331 329 327 340 11 41 49 48 65 78 89 90 82 71 64 60 51 37 31 34 41 47 46 39 35 48 98 144 163 172 172 166 162 162 160 157 154 153 157 162 163 161
7 8 10 11 12 14 16 13 9 7 7 5 2 3 6 9 10 10 12 17 26 35 40 38 38 42 44 45 48 49 46 49 57 60 58 59 56 47 45 40 26 17 24 30 8 338 327 325 330 348 14 24 318 355 50 67 68 72 79 81 76 66 50 35 27 28 37 47 48 37 25 11 205 188 176 167 161 159 162 168 169 163 156 153 153 152 149
5 7 10 12 13 15 17 17 15 12 9 8 6 4 5 8 9 11 14 18 25 34 40 40 38 40 41 42 45 47 44 43 48 56 58 55 48 40 34 28 20 15 19 28 29 23 13 346 317 320 331 334 330 329 325 354 45 61 84 102 101 94 86 77 62 42 31 33 41 48 43 13 243 205 186 173 163 158 158 163 167 166 161 156 152 148 145
3 5 9 12 15 18 19 19 19 17 14 12 10 7 6 9 13 15 17 20 26 34 39 41 42 42 42 43 50 56 53 46 44 47 49 46 41 36 30 21 15 15 20 27 33 39 47 58 75 97 222 262 288 309 309 301 316 39 82 105 107 108 113 119 121 81 5 359 1 13 56 141 190 196 189 178 167 160 158 159 161 163 162 159 156 154 154
1 4 9 11 15 21 23 21 21 21 19 16 14 11 8 9 15 20 22 23 27 32 35 38 42 43 41 41 47 52 52 49 47 46 45 43 40 37 33 24 15 14 19 25 32 40 47 53 58 64 74 114 209 239 254 259 254 239 228 216 176 184 224 237 254 323 332 330 328 323 292 206 190 186 182 177 170 166 165 166 166 167 167 165 164 164 163
2 7 12 12 14 21 24 22 22 24 23 20 18 16 12 11 14 19 24 26 28 30 32 34 37 38 37 39 42 44 45 48 49 47 45 44 40 35 33 31 28 24 25 30 37 42 43 43 42 44 49 57 76 154 203 219 220 212 204 201 201 207 224 252 285 303 304 301 299 293 270 227 201 191 187 185 182 177 173 171 171 172 172 171 170 168 165
6 10 13 12 11 17 22 24 24 25 25 24 23 21 19 16 15 16 22 28 32 33 33 34 35 36 38 43 46 45 44 46 47 46 45 44 41 36 34 37 40 41 40 42 44 42 38 35 34 35 38 41 48 73 113 146 174 186 186 184 183 186 192 210 247 272 276 269 257 241 217 197 190 186 182 181 180 179 178 176 174 174 175 175 171 166 162
8 9 13 13 11 12 18 25 28 28 26 26 27 26 24 22 18 17 20 27 33 35 36 37 36 36 39 46 51 51 47 46 48 48 48 46 44 42 42 44 47 51 53 55 56 54 48 42 39 38 40 46 60 80 95 106 118 128 138 148 154 158 157 154 155 171 198 209 207 196 181 172 171 172 171 170 170 170 173 175 171 166 164 165 164 160 155
9 10 12 13 14 16 20 24 28 29 27 26 28 29 28 26 23 20 20 25 30 34 37 39 39 37 37 41 45 46 46 47 50 51 50 50 50 50 50 50 52 55 59 63 65 65 61 57 55 55 60 73 87 93 95 100 104 106 106 107 110 115 124 129 130 130 134 141 150 159 158 152 149 149 152 154 152 149 147 147 143 138 135 136 140 145 146
8 10 11 10 13 19 25 29 30 29 28 26 26 27 28 30 30 27 22 22 25 28 32 36 38 37 35 37 40 42 44 47 49 51 54 58 58 55 53 54 56 58 61 65 66 66 65 67 73 78 86 93 95 96 97 100 103 105 106 106 106 108 112 117 119 121 124 128 133 139 141 139 135 133 133 134 135 136 136 135 133 130 126 122 123 129 136
5 6 8 10 11 15 22 28 29 27 25 25 25 25 26 31 34 33 29 25 24 24 28 33 35 32 31 34 39 43 45 47 49 52 58 63 65 63 62 63 64 63 62 62 63 63 66 72 77 81 87 90 90 90 92 95 98 100 102 104 104 105 107 110 112 115 118 120 123 126 129 130 130 129 128 127 129 131 134 134 132 131 128 123 116 116 123
5 6 8 10 10 12 16 21 22 20 21 23 24 22 24 29 34 35 36 36 31 27 29 35 37 33 30 31 36 40 44 49 53 56 58 62 68 72 73 73 75 77 77 75 74 74 75 78 79 81 85 87 88 87 89 92 96 98 100 100 101 102 102 104 106 107 108 108 110 111 113 115 117 119 120 120 120 121 124 125 124 124 124 122 114 105 102
7 9 10 10 10 11 14 16 17 17 19 21 21 19 21 29 36 37 39 42 42 38 36 40 44 44 40 35 35 38 42 48 55 58 58 60 67 73 76 78 82 84 85 84 84 83 83 83 83 84 85 86 86 86 86 88 90 92 93 94 95 95 95 95 96 97 98 99 100 101 101 102 102 102 103 104 104 104 105 106 107 106 105 104 101 96 93
5 7 7 9 11 12 11 12 14 17 19 20 21 20 22 27 32 34 37 43 49 48 44 46 50 52 51 47 43 42 42 46 53 59 62 64 67 72 76 80 83 86 87 87 87 87 86 86 86 86 86 86 86 86 86 86 86 86 86 86 86 87 87 87 87 89 91 93 93 94 94 94 95 95 96 98 99 98 97 97 97 96 94 91 90 91 93